| time (UTC) | temp C | wind direction | speed KPH | gust KPH | rain 1hr cm | rain 24hr cm | rain mn cm | humidity % | barometer mb |
| 20260504160124 | 16 | 211 | 17.7 | 25.7 | 0.00 | 0.00 | 0.00 | 37 | |
| 20260504151051 | 16 | 219 | 19.3 | 22.5 | 0.00 | 0.00 | 0.00 | 43 | |
| 20260504150548 | 16 | 222 | 14.5 | 20.9 | 0.00 | 0.00 | 0.00 | 43 | |
| 20260504141014 | 17 | 245 | 17.7 | 25.7 | 0.00 | 0.00 | 0.00 | 46 | |
| 20260504140511 | 17 | 258 | 16.1 | 32.2 | 0.00 | 0.00 | 0.00 | 46 | |
| 20260504130435 | 16 | 174 | 17.7 | 24.1 | 0.00 | 0.00 | 0.00 | 45 | |
| 20260504110322 | 11 | 136 | 19.3 | 27.4 | 0.00 | 0.00 | 0.00 | 56 | |
| 20260504100240 | 11 | 142 | 16.1 | 20.9 | 0.00 | 0.00 | 0.00 | 56 | |
| 20260504081634 | 12 | 162 | 11.3 | 17.7 | 0.00 | 0.00 | 0.00 | 50 | |
| 20260504081130 | 12 | 152 | 8.0 | 17.7 | 0.00 | 0.00 | 0.00 | 50 | |
| 20260504080627 | 12 | 161 | 12.9 | 17.7 | 0.00 | 0.00 | 0.00 | 50 | |
| 20260504080123 | 12 | 167 | 11.3 | 14.5 | 0.00 | 0.00 | 0.00 | 50 | |
| 20260504050439 | 12 | 170 | 9.7 | 11.3 | 0.00 | 0.00 | 0.00 | 50 | |
| 20260504045936 | 12 | 170 | 9.7 | 11.3 | 0.00 | 0.00 | 0.00 | 50 | |
| 20260504045432 | 12 | 163 | 6.4 | 9.7 | 0.00 | 0.00 | 0.00 | 49 | |
| 20260504044928 | 12 | 154 | 8.0 | 9.7 | 0.00 | 0.00 | 0.00 | 49 | |
| 20260504044426 | 12 | 183 | 6.4 | 8.0 | 0.00 | 0.00 | 0.00 | 49 | |
| 20260504043923 | 12 | 168 | 8.0 | 9.7 | 0.00 | 0.00 | 0.00 | 48 | |
| 20260504043420 | 12 | 162 | 6.4 | 9.7 | 0.00 | 0.00 | 0.00 | 47 | |
| 20260504042917 | 13 | 168 | 6.4 | 8.0 | 0.00 | 0.00 | 0.00 | 47 | |
| 20260504042413 | 13 | 168 | 6.4 | 8.0 | 0.00 | 0.00 | 0.00 | 47 | |
| 20260504041909 | 12 | 173 | 4.8 | 8.0 | 0.00 | 0.00 | 0.00 | 46 | |
| 20260504041406 | 12 | 194 | 3.2 | 4.8 | 0.00 | 0.00 | 0.00 | 46 | |
| 20260504040902 | 13 | 167 | 4.8 | 9.7 | 0.00 | 0.00 | 0.00 | 45 | |
| 20260504040400 | 13 | 172 | 6.4 | 11.3 | 0.00 | 0.00 | 0.00 | 44 | |
| 20260504035855 | 13 | 153 | 8.0 | 9.7 | 0.00 | 0.00 | 0.00 | 43 | |
| 20260504035353 | 13 | 181 | 4.8 | 4.8 | 0.00 | 0.00 | 0.00 | 43 | |
| 20260504034850 | 13 | 175 | 3.2 | 4.8 | 0.00 | 0.00 | 0.00 | 43 | |
| 20260504033850 | 13 | 213 | 4.8 | 8.0 | 0.00 | 0.00 | 0.00 | 41 | |
| 20260504033348 | 13 | 213 | 4.8 | 8.0 | 0.00 | 0.00 | 0.00 | 41 | |
| 20260504032844 | 13 | 197 | 1.6 | 3.2 | 0.00 | 0.00 | 0.00 | 41 | |
| 20260504032342 | 13 | 194 | 3.2 | 3.2 | 0.00 | 0.00 | 0.00 | 41 | |
| 20260504031838 | 13 | 172 | 6.4 | 8.0 | 0.00 | 0.00 | 0.00 | 41 | |
| 20260504031336 | 13 | 167 | 4.8 | 8.0 | 0.00 | 0.00 | 0.00 | 41 | |
| 20260504030832 | 13 | 215 | 4.8 | 4.8 | 0.00 | 0.00 | 0.00 | 41 | |
| 20260504030329 | 14 | 174 | 8.0 | 9.7 | 0.00 | 0.00 | 0.00 | 40 | |
| 20260504025825 | 14 | 161 | 3.2 | 8.0 | 0.00 | 0.00 | 0.00 | 39 | |
| 20260504025322 | 14 | 186 | 4.8 | 8.0 | 0.00 | 0.00 | 0.00 | 38 | |
| 20260504024819 | 14 | 196 | 4.8 | 4.8 | 0.00 | 0.00 | 0.00 | 38 | |
| 20260504024316 | 14 | 184 | 3.2 | 4.8 | 0.00 | 0.00 | 0.00 | 37 | |
| 20260504023812 | 14 | 177 | 4.8 | 4.8 | 0.00 | 0.00 | 0.00 | 38 | |
| 20260504023309 | 14 | 180 | 4.8 | 4.8 | 0.00 | 0.00 | 0.00 | 38 | |
| 20260504022805 | 14 | 192 | 4.8 | 4.8 | 0.00 | 0.00 | 0.00 | 37 | |
| 20260504022302 | 14 | 191 | 3.2 | 4.8 | 0.00 | 0.00 | 0.00 | 37 | |
| 20260504021758 | 15 | 201 | 1.6 | 3.2 | 0.00 | 0.00 | 0.00 | 38 | |
| 20260504021256 | 15 | 181 | 4.8 | 4.8 | 0.00 | 0.00 | 0.00 | 37 | |
| 20260504020752 | 15 | 198 | 1.6 | 3.2 | 0.00 | 0.00 | 0.00 | 37 | |
| 20260504020249 | 16 | 191 | 1.6 | 3.2 | 0.00 | 0.00 | 0.00 | 37 | |
| 20260504015745 | 16 | 195 | 3.2 | 4.8 | 0.00 | 0.00 | 0.00 | 36 | |
| 20260504015242 | 16 | 200 | 1.6 | 3.2 | 0.00 | 0.00 | 0.00 | 36 | |
| 20260504014737 | 16 | 203 | 1.6 | 4.8 | 0.00 | 0.00 | 0.00 | 37 | |
| 20260504014234 | 16 | 215 | 3.2 | 3.2 | 0.00 | 0.00 | 0.00 | 36 | |
| 20260504013732 | 16 | 210 | 1.6 | 3.2 | 0.00 | 0.00 | 0.00 | 36 | |
| 20260504013229 | 16 | 204 | 0.0 | 3.2 | 0.00 | 0.00 | 0.00 | 36 | |
| 20260504012726 | 16 | 211 | 1.6 | 4.8 | 0.00 | 0.00 | 0.00 | 37 | |
| 20260504012224 | 16 | 212 | 3.2 | 4.8 | 0.00 | 0.00 | 0.00 | 36 | |
| 20260504011720 | 17 | 220 | 4.8 | 4.8 | 0.00 | 0.00 | 0.00 | 35 | |
| 20260504011217 | 17 | 203 | 4.8 | 4.8 | 0.00 | 0.00 | 0.00 | 35 | |
| 20260504010713 | 17 | 209 | 3.2 | 3.2 | 0.00 | 0.00 | 0.00 | 35 | |
| 20260504010209 | 17 | 199 | 4.8 | 8.0 | 0.00 | 0.00 | 0.00 | 35 | |
| 20260504005706 | 17 | 209 | 4.8 | 8.0 | 0.00 | 0.00 | 0.00 | 34 | |
| 20260504005203 | 18 | 207 | 4.8 | 8.0 | 0.00 | 0.00 | 0.00 | 34 | |
| 20260504004700 | 18 | 210 | 4.8 | 4.8 | 0.00 | 0.00 | 0.00 | 33 | |
| 20260504004157 | 18 | 216 | 4.8 | 8.0 | 0.00 | 0.00 | 0.00 | 33 | |
| 20260504003654 | 18 | 219 | 4.8 | 4.8 | 0.00 | 0.00 | 0.00 | 33 | |
| 20260504003151 | 18 | 218 | 4.8 | 8.0 | 0.00 | 0.00 | 0.00 | 32 | |
| 20260504002647 | 19 | 219 | 8.0 | 11.3 | 0.00 | 0.00 | 0.00 | 31 | |
| 20260504002145 | 19 | 214 | 14.5 | 16.1 | 0.00 | 0.00 | 0.00 | 31 | |
| 20260504001643 | 20 | 215 | 8.0 | 11.3 | 0.00 | 0.00 | 0.00 | 30 | |
| 20260504001138 | 20 | 220 | 8.0 | 12.9 | 0.00 | 0.00 | 0.00 | 30 | |
| 20260504000636 | 20 | 209 | 11.3 | 12.9 | 0.00 | 0.00 | 0.00 | 28 | |
| 20260504000133 | 20 | 233 | 8.0 | 12.9 | 0.00 | 0.00 | 0.00 | 27 | |
| 20260503235631 | 20 | 222 | 9.7 | 11.3 | 0.00 | 0.00 | 0.00 | 28 | |
| 20260503235127 | 20 | 229 | 8.0 | 14.5 | 0.00 | 0.00 | 0.00 | 28 | |
| 20260503234626 | 20 | 227 | 9.7 | 14.5 | 0.00 | 0.00 | 0.00 | 27 | |
| 20260503234124 | 20 | 216 | 6.4 | 9.7 | 0.00 | 0.00 | 0.00 | 28 | |
| 20260503233620 | 20 | 213 | 9.7 | 16.1 | 0.00 | 0.00 | 0.00 | 27 | |
| 20260503233116 | 20 | 223 | 14.5 | 17.7 | 0.00 | 0.00 | 0.00 | 28 | |
| 20260503232613 | 20 | 225 | 9.7 | 17.7 | 0.00 | 0.00 | 0.00 | 27 | |
| 20260503232110 | 20 | 223 | 9.7 | 11.3 | 0.00 | 0.00 | 0.00 | 28 | |
| 20260503231608 | 20 | 230 | 11.3 | 17.7 | 0.00 | 0.00 | 0.00 | 28 | |
| 20260503231104 | 20 | 216 | 8.0 | 12.9 | 0.00 | 0.00 | 0.00 | 28 | |
| 20260503230601 | 20 | 190 | 11.3 | 16.1 | 0.00 | 0.00 | 0.00 | 30 | |
| 20260503230059 | 20 | 216 | 11.3 | 16.1 | 0.00 | 0.00 | 0.00 | 30 | |
| 20260503225555 | 20 | 231 | 14.5 | 16.1 | 0.00 | 0.00 | 0.00 | 29 | |
| 20260503225050 | 20 | 225 | 14.5 | 16.1 | 0.00 | 0.00 | 0.00 | 28 | |
| 20260503224548 | 20 | 222 | 11.3 | 16.1 | 0.00 | 0.00 | 0.00 | 27 | |
| 20260503224046 | 20 | 218 | 11.3 | 14.5 | 0.00 | 0.00 | 0.00 | 28 | |
| 20260503223544 | 20 | 232 | 14.5 | 16.1 | 0.00 | 0.00 | 0.00 | 27 | |
| 20260503223039 | 20 | 217 | 11.3 | 14.5 | 0.00 | 0.00 | 0.00 | 26 | |
| 20260503222538 | 21 | 225 | 17.7 | 24.1 | 0.00 | 0.00 | 0.00 | 27 | |
| 20260503222035 | 20 | 202 | 12.9 | 20.9 | 0.00 | 0.00 | 0.00 | 28 | |
| 20260503221533 | 21 | 212 | 6.4 | 16.1 | 0.00 | 0.00 | 0.00 | 28 | |
| 20260503221030 | 20 | 216 | 14.5 | 22.5 | 0.00 | 0.00 | 0.00 | 27 | |
| 20260503220526 | 20 | 227 | 11.3 | 14.5 | 0.00 | 0.00 | 0.00 | 29 | |
| 20260503220023 | 20 | 211 | 4.8 | 17.7 | 0.00 | 0.00 | 0.00 | 27 | |
| 20260503215520 | 20 | 202 | 17.7 | 20.9 | 0.00 | 0.00 | 0.00 | 28 | |
| 20260503215017 | 20 | 223 | 6.4 | 9.7 | 0.00 | 0.00 | 0.00 | 28 | |
| 20260503214516 | 20 | 210 | 6.4 | 9.7 | 0.00 | 0.00 | 0.00 | 28 | |
| 20260503214012 | 20 | 219 | 8.0 | 14.5 | 0.00 | 0.00 | 0.00 | 27 | |
| 20260503213511 | 21 | 217 | 9.7 | 16.1 | 0.00 | 0.00 | 0.00 | 28 | |
| 20260503213007 | 20 | 208 | 14.5 | 17.7 | 0.00 | 0.00 | 0.00 | 29 | |
| 20260503212504 | 21 | 225 | 12.9 | 16.1 | 0.00 | 0.00 | 0.00 | 31 | |
| 20260503212001 | 20 | 225 | 17.7 | 20.9 | 0.00 | 0.00 | 0.00 | 29 | |
| 20260503211459 | 20 | 204 | 8.0 | 11.3 | 0.00 | 0.00 | 0.00 | 28 | |
| 20260503210954 | 21 | 200 | 3.2 | 4.8 | 0.00 | 0.00 | 0.00 | 26 | |
| 20260503210451 | 21 | 202 | 11.3 | 14.5 | 0.00 | 0.00 | 0.00 | 29 | |
| 20260503205951 | 21 | 203 | 8.0 | 14.5 | 0.00 | 0.00 | 0.00 | 28 | |
| 20260503205449 | 21 | 216 | 9.7 | 16.1 | 0.00 | 0.00 | 0.00 | 30 | |
| 20260503204945 | 21 | 203 | 14.5 | 17.7 | 0.00 | 0.00 | 0.00 | 28 | |
| 20260503204442 | 21 | 210 | 3.2 | 11.3 | 0.00 | 0.00 | 0.00 | 29 | |
| 20260503203939 | 21 | 233 | 14.5 | 17.7 | 0.00 | 0.00 | 0.00 | 29 | |
| 20260503203437 | 21 | 205 | 11.3 | 17.7 | 0.00 | 0.00 | 0.00 | 32 | |
| 20260503202933 | 21 | 220 | 17.7 | 20.9 | 0.00 | 0.00 | 0.00 | 33 | |
| 20260503202432 | 21 | 224 | 9.7 | 11.3 | 0.00 | 0.00 | 0.00 | 31 | |
| 20260503201930 | 21 | 218 | 14.5 | 20.9 | 0.00 | 0.00 | 0.00 | 32 | |
| 20260503201427 | 21 | 223 | 11.3 | 16.1 | 0.00 | 0.00 | 0.00 | 31 | |
| 20260503200924 | 20 | 213 | 17.7 | 17.7 | 0.00 | 0.00 | 0.00 | 32 | |
| 20260503200420 | 20 | 183 | 11.3 | 14.5 | 0.00 | 0.00 | 0.00 | 32 | |
| 20260503195917 | 20 | 228 | 16.1 | 32.2 | 0.00 | 0.00 | 0.00 | 34 | |
| 20260503195415 | 20 | 205 | 12.9 | 17.7 | 0.00 | 0.00 | 0.00 | 33 | |
| 20260503194911 | 20 | 208 | 22.5 | 25.7 | 0.00 | 0.00 | 0.00 | 32 | |
| 20260503194408 | 21 | 214 | 9.7 | 14.5 | 0.00 | 0.00 | 0.00 | 30 | |
| 20260503193903 | 20 | 203 | 12.9 | 17.7 | 0.00 | 0.00 | 0.00 | 31 | |
| 20260503193359 | 21 | 214 | 16.1 | 25.7 | 0.00 | 0.00 | 0.00 | 31 | |
| 20260503192855 | 21 | 205 | 9.7 | 16.1 | 0.00 | 0.00 | 0.00 | 32 | |
| 20260503192350 | 21 | 215 | 8.0 | 9.7 | 0.00 | 0.00 | 0.00 | 31 | |
| 20260503191847 | 20 | 197 | 6.4 | 11.3 | 0.00 | 0.00 | 0.00 | 32 | |
| 20260503191344 | 21 | 231 | 14.5 | 24.1 | 0.00 | 0.00 | 0.00 | 31 | |
| 20260503190841 | 21 | 225 | 12.9 | 20.9 | 0.00 | 0.00 | 0.00 | 30 | |
| 20260503190338 | 21 | 196 | 1.6 | 4.8 | 0.00 | 0.00 | 0.00 | 30 | |
| 20260503185835 | 21 | 227 | 3.2 | 9.7 | 0.00 | 0.00 | 0.00 | 30 | |
| 20260503185331 | 20 | 259 | 3.2 | 11.3 | 0.00 | 0.00 | 0.00 | 29 | |
| 20260503184826 | 21 | 204 | 11.3 | 16.1 | 0.00 | 0.00 | 0.00 | 30 | |
| 20260503184322 | 21 | 206 | 3.2 | 4.8 | 0.00 | 0.00 | 0.00 | 31 | |
| 20260503183818 | 20 | 217 | 20.9 | 24.1 | 0.00 | 0.00 | 0.00 | 30 | |
| 20260503183316 | 20 | 209 | 8.0 | 20.9 | 0.00 | 0.00 | 0.00 | 31 | |
| 20260503182813 | 21 | 203 | 3.2 | 16.1 | 0.00 | 0.00 | 0.00 | 30 | |
| 20260503182312 | 20 | 210 | 1.6 | 9.7 | 0.00 | 0.00 | 0.00 | 31 | |
| 20260503181809 | 20 | 202 | 6.4 | 20.9 | 0.00 | 0.00 | 0.00 | 32 | |
| 20260503181306 | 19 | 218 | 14.5 | 20.9 | 0.00 | 0.00 | 0.00 | 34 | |
| 20260503180802 | 20 | 227 | 14.5 | 20.9 | 0.00 | 0.00 | 0.00 | 33 | |
| 20260503180300 | 20 | 216 | 24.1 | 27.4 | 0.00 | 0.00 | 0.00 | 33 | |
| 20260503175756 | 20 | 220 | 11.3 | 14.5 | 0.00 | 0.00 | 0.00 | 34 | |
| 20260503175254 | 21 | 211 | 22.5 | 25.7 | 0.00 | 0.00 | 0.00 | 34 | |
| 20260503174749 | 21 | 221 | 11.3 | 14.5 | 0.00 | 0.00 | 0.00 | 36 | |
| 20260503174248 | 20 | 236 | 11.3 | 12.9 | 0.00 | 0.00 | 0.00 | 36 | |
| 20260503173748 | 20 | 196 | 8.0 | 12.9 | 0.00 | 0.00 | 0.00 | 36 | |
| 20260503173244 | 20 | 222 | 1.6 | 3.2 | 0.00 | 0.00 | 0.00 | 35 | |
| 20260503172741 | 19 | 210 | 11.3 | 14.5 | 0.00 | 0.00 | 0.00 | 36 | |
| 20260503172238 | 20 | 237 | 17.7 | 20.9 | 0.00 | 0.00 | 0.00 | 35 | |
| 20260503171734 | 20 | 251 | 4.8 | 8.0 | 0.00 | 0.00 | 0.00 | 36 | |
| 20260503171232 | 20 | 207 | 1.6 | 3.2 | 0.00 | 0.00 | 0.00 | 36 | |
| 20260503170729 | 20 | 218 | 4.8 | 9.7 | 0.00 | 0.00 | 0.00 | 35 | |
| 20260503170226 | 20 | 235 | 4.8 | 8.0 | 0.00 | 0.00 | 0.00 | 36 |